Flag for France Weather past 2 weeks in Nancy, France

Now
54 °F

Clear.


Feels Like: 54 °F
Forecast: 48 / 64 °F
Wind: 2 mph from North

Location: Metz-Nancy-Lorraine

Current Time: May 25, 2015 at 1:34:05 AM

Latest Report: May 25, 2015 at 1:00 AM


Visibility: 10 mi

Pressure: 30.04 "Hg

Humidity: 77%

Dew point: 46 °F

Location of NancyLocation

Historic Weather in Nancy — Graph

°F

Nancy temperature yesterday

Maximum temperature yesterday: 72 °F (at 3:00 PM)
Minimum temperature yesterday: 54 °F (at 2:00 AM)
Average temperature yesterday: 61 °F

Past Weeks' High & Low Weather Summary

 TemperatureHumidityPressure
High81 °F (May 12, 2:00 PM)100% (May 17, 4:30 AM)30.36 "Hg (May 17, 4:30 AM)
Low39 °F (May 21, 5:30 AM)32% (May 21, 5:30 PM)29.74 "Hg (May 18, 7:00 PM)
Average58 °F68%30.10 "Hg
* Reported Midnight between May 9 and May 10 — May 25 12:30 AM, Nancy, Weather by CustomWeather, © 2015

Note: Actual official high and low records may vary slightly from our data, if they occured in-between our weather recording intervals... More about our weather records

Advertising

Nancy weather history for previous 24 hours

 ConditionsComfort  
Time TempWeatherWind HumidityBarometerVisibility
12:30 AM
Mon, May 25
57 °FClear.2 mph67%30.04 "Hg10 mi
12:00 AM57 °FClear.2 mph72%30.07 "Hg10 mi
11:30 PM
Sun, May 24
59 °FClear.3 mph68%30.07 "Hg10 mi
11:00 PM61 °FClear.2 mph63%30.07 "Hg10 mi
10:30 PM61 °FClear.3 mph68%30.07 "Hg10 mi
10:00 PM63 °FSunny.6 mph64%30.04 "Hg10 mi
9:30 PM64 °FSunny.3 mph64%30.04 "Hg10 mi
9:00 PM66 °FOvercast.2 mph60%30.04 "HgN/A
8:30 PM66 °FSunny.3 mph60%30.04 "Hg10 mi
8:00 PM66 °FSunny.2 mph56%30.04 "Hg10 mi
7:30 PM66 °FSunny.No wind56%30.04 "Hg10 mi
7:00 PM66 °FSunny.3 mph60%30.04 "Hg10 mi
6:30 PM68 °FSunny.2 mph56%30.04 "Hg10 mi
6:00 PM68 °FSunny.2 mph56%30.04 "Hg10 mi
5:30 PM68 °FPassing clouds.5 mph53%30.07 "HgN/A
5:00 PM68 °FSunny.5 mph56%30.07 "Hg10 mi
4:30 PM68 °FPassing clouds.6 mph53%30.07 "HgN/A
4:00 PM68 °FOvercast.8 mph53%30.07 "HgN/A
3:30 PM70 °FPassing clouds.5 mph50%30.07 "HgN/A
3:00 PM72 °FSunny.3 mph41%30.07 "Hg10 mi
2:30 PM70 °FSunny.3 mph46%30.07 "Hg10 mi
2:00 PM70 °FSunny.3 mph50%30.07 "Hg10 mi
1:30 PM70 °FPassing clouds.5 mph53%30.09 "HgN/A
1:00 PM68 °FPartly sunny.3 mph53%30.09 "HgN/A
12:30 PM66 °FScattered clouds.5 mph60%30.09 "HgN/A
12:00 PM68 °FSunny.3 mph53%30.09 "Hg10 mi
11:30 AM66 °FClear.5 mph64%30.09 "Hg6 mi
11:00 AM64 °FClear.3 mph68%30.09 "Hg5 mi
10:30 AM63 °FClear.5 mph73%30.09 "Hg4 mi
10:00 AM61 °FClear.5 mph77%30.09 "Hg4 mi
9:30 AM59 °FFog.5 mph77%30.09 "Hg3 mi
9:00 AM57 °FFog.5 mph82%30.09 "Hg3 mi
8:30 AM57 °FFog.6 mph82%30.09 "Hg3 mi
8:00 AM55 °FFog.6 mph88%30.09 "Hg2 mi
7:30 AM54 °FFog.5 mph94%30.09 "Hg2 mi
7:00 AM54 °FFog.6 mph94%30.09 "Hg2 mi
6:30 AM54 °FFog.5 mph88%30.09 "Hg2 mi
6:00 AM54 °FFog.1 mph88%30.07 "Hg2 mi
5:30 AM54 °FFog.3 mph88%30.07 "Hg2 mi
5:00 AM54 °FFog.5 mph88%30.07 "Hg2 mi
4:30 AM54 °FFog.5 mph88%30.07 "Hg2 mi
4:00 AM54 °FFog.3 mph88%30.09 "Hg3 mi
3:30 AM54 °FFog.3 mph88%30.09 "Hg3 mi
3:00 AM54 °FClear.3 mph88%30.09 "Hg4 mi
2:30 AM54 °FClear.3 mph88%30.09 "Hg4 mi
2:00 AM54 °FClear.5 mph82%30.09 "Hg4 mi
1:30 AM55 °FClear.6 mph82%30.09 "Hg5 mi
1:00 AM55 °FClear.6 mph77%30.09 "Hg10 mi
Weather by CustomWeather, © 2015

See weather overviewHow to use our weather pages